Regional Weather Roundup
Issued by NWS

Home | Current Version | Previous Version | Graphics & Text | Print | Product List | Glossary On
Versions: 1 2 3 4 5 6 7 8 9 10 11 12 13 14 15 16 17 18 19 20 21 22 23 24 25 26 27 28 29 30 31 32 33 34 35 36 37 38 39 40 41 42 43 44 45 46 47 48 49 50
000
ASUS45 KCYS 210110
RWRWY

WYOMING REGIONAL WEATHER ROUNDUP
NATIONAL WEATHER SERVICE CHEYENNE WY
600 PM MST MON FEB 20 2017

NOTE:  "FAIR" INDICATES FEW OR NO CLOUDS BELOW 12,000 FEET
WITH NO SIGNIFICANT WEATHER AND/OR OBSTRUCTIONS TO VISIBILITY.

WYZ001-210200-
YELLOWSTONE NATIONAL PARK

CITY           SKY/WX    TMP DP  RH WIND       PRES   REMARKS
LK YELLOWSTONE   N/A     31  30  96 VRB7      29.87R WCI  24
W YELLOWSTONE  NOT AVBL

$$
WYZ002>013-054>058-071-098>099-210200-
NORTHERN WYOMING

CITY           SKY/WX    TMP DP  RH WIND       PRES   REMARKS
JACKSON        CLOUDY    34  34 100 S18       29.93S WCI  23
CODY           FAIR      45  31  58 SW15G23   29.79R
GREYBULL       FAIR      49  30  48 E7        29.76R
WORLAND        FAIR      47  31  53 S17       29.78R
SHERIDAN       FAIR      56  23  27 VRB7      29.68F
BUFFALO        FAIR      52  25  35 N9        29.76F
GILLETTE       FAIR      54  25  32 SW22      29.76R
HULETT         FAIR      52  27  37 S12       29.76F
NEWCASTLE      FAIR      50  28  43 SE6       29.85R

$$
WYZ014>020-022>026-101>103-210200-
CENTRAL WYOMING

CITY           SKY/WX    TMP DP  RH WIND       PRES   REMARKS
BIG PINEY      CLOUDY    32  28  85 S8        30.02R WCI  25
PINEDALE       CLOUDY    32  28  86 SE9       30.02F WCI  24
DUBOIS         CLOUDY    36  28  75 NW9G22    29.89R WCI  29
LANDER         FAIR      46  29  51 NW8G24    29.89R
RIVERTON       FAIR      42  29  59 SW16      29.89F
CASPER         FAIR      46  29  51 SW23G31   29.93R
DOUGLAS        FAIR      50  28  42 W29G38    29.88F

$$
WYZ021-027>030-104>119-210200-
SOUTHERN WYOMING

CITY           SKY/WX    TMP DP  RH WIND       PRES   REMARKS
EVANSTON       CLOUDY    37  28  70 SW14      30.00S WCI  28
KEMMERER         N/A     36  30  80 SW5       30.01S WCI  32
FORT BRIDGER   CLOUDY    42  29  59 CALM      30.04R
ROCK SPRINGS   FAIR      40  27  59 S13       30.02S WCI  32
DIXON            N/A     42  31  65 SW9       30.13R
RAWLINS        FAIR      39  29  67 SW16      30.05R WCI  30
SARATOGA       FAIR      37  27  65 SE10      30.07F WCI  30
LARAMIE        FAIR      40  21  46 SE10      30.06R WCI  33
CHEYENNE       FAIR      50  18  28 W24G35    30.02R
TORRINGTON     FAIR      55  22  27 NW20      29.93R
PINE BLUFFS    FAIR      46  18  31 NW10      30.00R

$$



USA.gov is the U.S. government's official web portal to all federal, state and local government web resources and services.